This is the latest recevied weather packets stored in our database for station/object IW8PDD-3. If no packets are shown the sender has not sent any weather packets the latest 10 day(s).
| Time | Temp. | Humidity | Pressure | Rain* | Wind** | Luminosity | Snow |
|---|---|---|---|---|---|---|---|
| 1777723078 | 20° C | 45% | 1020.9 hPa | - | - | - | - |
| 1777721875 | 20° C | 45% | 1020.9 hPa | - | - | - | - |
| 1777720671 | 19.44° C | 46% | 1021 hPa | - | - | - | - |
| 1777719468 | 18.33° C | 46% | 1021.1 hPa | - | - | - | - |
| 1777718264 | 18.33° C | 46% | 1021.2 hPa | - | - | - | - |
| 1777717061 | 18.33° C | 45% | 1021.4 hPa | - | - | - | - |
| 1777715857 | 18.33° C | 45% | 1021.4 hPa | - | - | - | - |
| 1777714654 | 18.33° C | 46% | 1021.1 hPa | - | - | - | - |
| 1777713450 | 18.33° C | 46% | 1021.1 hPa | - | - | - | - |
| 1777712247 | 18.33° C | 46% | 1021 hPa | - | - | - | - |
| 1777711044 | 18.33° C | 47% | 1020.9 hPa | - | - | - | - |
| 1777709840 | 18.33° C | 48% | 1020.8 hPa | - | - | - | - |
| 1777708637 | 17.78° C | 50% | 1020.9 hPa | - | - | - | - |
| 1777707433 | 17.78° C | 50% | 1021.1 hPa | - | - | - | - |
| 1777706230 | 17.22° C | 51% | 1020.8 hPa | - | - | - | - |
| 1777705026 | 17.22° C | 50% | 1020.8 hPa | - | - | - | - |
| 1777702619 | 16.67° C | 51% | 1020.7 hPa | - | - | - | - |
| 1777701416 | 16.11° C | 51% | 1020.6 hPa | - | - | - | - |
| 1777700212 | 16.11° C | 51% | 1020.5 hPa | - | - | - | - |
| 1777699009 | 16.11° C | 51% | 1020.5 hPa | - | - | - | - |
| 1777697805 | 15.56° C | 51% | 1020.4 hPa | - | - | - | - |
| 1777696602 | 15.56° C | 51% | 1020.3 hPa | - | - | - | - |
| 1777695399 | 15° C | 52% | 1020.1 hPa | - | - | - | - |
| 1777694195 | 15° C | 53% | 1020.1 hPa | - | - | - | - |
| 1777692992 | 15° C | 54% | 1020.1 hPa | - | - | - | - |
* Rain since midnight (hover to see other rain measurements)
** Current wind speed in m/s (hover to see current wind gust speed)